Wind_Speed
13 11 9 8 9 9 11 10 8 11 14 15 14 12 10 12 13 11 11 12 12 11 10 10 10 11 11 12 12 12 11 10 10 10 10 10 9 9 8 9 10 10 10 9 9 9 9 9 9 10 9 8 7 7 7 8 9 9 9 9 8 7 7 7 7 7 6 6 7 7 7 7 7 7 7 7 8 8 9 10 12 12 12 11 10
12 10 8 7 8 8 9 9 9 11 12 11 11 11 10 11 12 12 12 12 12 10 10 10 11 11 11 11 11 11 10 9 9 9 9 10 9 9 9 9 10 10 10 9 10 10 10 9 9 9 10 9 7 6 6 7 8 9 8 8 8 7 7 7 8 7 6 6 6 7 7 7 7 7 7 7 7 8 9 10 11 12 12 11 11
11 9 7 5 7 7 8 8 9 10 10 9 9 10 9 11 12 12 12 12 11 10 11 10 10 11 11 11 11 10 9 9 9 8 8 10 10 10 10 10 10 10 10 10 10 11 10 9 9 9 9 8 7 6 6 6 7 8 8 8 8 8 8 8 8 8 8 7 7 8 8 7 6 6 7 7 7 8 9 10 11 12 12 11 11
9 7 6 5 6 7 7 7 8 9 10 9 9 9 9 12 13 12 12 11 10 11 10 10 10 10 10 10 10 9 9 8 8 7 8 9 10 10 10 10 11 11 10 11 11 11 10 10 10 9 9 8 7 7 6 5 6 7 7 7 8 9 9 9 9 10 10 9 10 11 10 8 7 7 7 8 8 8 8 10 11 12 11 11 11
7 6 5 5 7 7 6 7 7 8 8 8 9 8 10 12 12 11 11 10 10 10 9 10 10 10 10 10 9 9 8 7 7 7 8 9 10 10 10 10 11 11 11 11 11 10 9 9 10 9 9 8 7 7 6 5 5 6 6 7 8 9 9 10 10 11 11 11 12 12 12 10 9 8 7 8 8 8 9 9 11 11 11 11 11
5 5 5 6 8 8 7 7 7 6 6 7 7 7 9 11 10 10 10 10 10 9 9 10 10 10 10 9 9 8 8 7 8 9 9 9 10 10 10 10 10 11 10 10 10 9 8 8 8 8 8 7 7 7 6 6 6 5 6 7 7 8 9 10 10 11 12 13 13 12 12 12 11 10 9 8 8 9 9 9 10 10 10 10 10
4 5 6 7 8 9 8 7 6 6 6 6 6 7 9 9 9 9 9 9 9 9 10 10 10 10 9 9 8 8 8 8 9 10 10 9 9 9 9 9 9 9 9 10 10 9 8 7 7 7 7 7 7 7 6 6 5 5 6 7 7 8 8 9 10 10 11 12 13 12 12 12 12 11 11 10 9 10 10 10 10 10 9 9 9
4 5 5 6 7 8 8 7 6 6 6 6 6 7 8 8 8 8 9 9 9 9 10 10 10 9 9 9 8 8 9 10 10 10 10 10 9 8 7 7 7 8 8 9 9 9 8 7 7 6 6 6 7 7 7 6 6 6 7 7 7 8 8 9 9 9 10 11 12 12 12 12 12 12 12 12 11 11 11 11 10 10 10 9 8
4 5 5 6 6 7 7 6 6 6 6 5 5 6 7 7 7 8 9 9 9 9 10 10 9 9 9 9 9 10 10 10 11 11 11 10 10 9 8 6 6 6 7 7 8 8 8 8 7 7 6 6 7 7 7 7 7 7 7 7 7 8 8 9 9 9 9 10 10 11 11 12 12 12 12 12 12 11 11 11 11 10 10 9 8
5 5 5 5 6 6 6 5 5 5 5 5 5 6 7 7 7 8 9 9 9 9 10 10 9 10 10 10 10 10 11 11 11 11 11 11 10 9 8 6 6 6 6 7 8 8 8 8 8 7 7 6 6 7 7 7 8 7 6 6 7 7 8 8 8 9 9 9 9 9 10 11 12 12 12 12 12 12 11 11 11 10 10 10 9
6 5 5 4 5 5 5 4 4 4 4 4 5 6 7 7 8 9 9 9 9 10 10 10 10 11 11 11 10 11 11 11 11 11 11 11 10 9 8 7 7 7 7 7 7 8 9 9 8 8 7 6 6 6 6 6 7 7 6 6 6 7 7 7 8 9 9 9 9 8 8 9 11 11 11 12 12 12 11 11 11 10 10 9 9
5 5 4 4 4 4 3 3 4 4 4 4 6 7 7 7 8 9 9 9 10 10 11 10 11 11 11 11 11 11 10 10 10 11 11 11 10 9 8 8 8 9 9 9 9 9 10 10 9 8 7 7 6 6 6 6 6 6 6 6 6 6 7 7 8 8 9 9 9 9 8 8 9 9 10 11 11 11 11 11 11 10 10 9 8
5 4 4 3 3 2 2 3 4 4 5 6 7 7 7 8 9 10 10 10 10 11 11 11 12 12 11 11 11 10 10 10 11 12 12 12 11 10 10 10 10 10 11 10 11 11 11 10 9 8 8 7 7 6 6 5 5 6 6 6 6 7 7 7 7 8 8 9 9 9 9 8 7 8 9 10 10 11 11 10 10 9 9 9 8
4 3 3 2 2 2 2 3 4 5 6 7 7 7 8 9 10 10 10 10 11 12 12 12 12 12 11 11 11 11 11 12 13 14 14 13 12 12 12 12 12 12 13 13 13 12 11 10 9 9 8 7 7 6 6 5 5 6 6 7 7 7 8 8 8 8 9 9 9 9 9 8 8 7 7 8 8 10 11 10 9 9 8 8 8
4 3 1 1 2 2 3 3 4 6 7 8 7 8 9 10 11 11 10 11 12 12 12 13 13 12 11 11 11 12 13 14 15 15 14 14 14 14 14 14 14 14 14 14 14 13 12 11 11 11 10 9 8 7 6 6 6 6 6 7 7 7 8 7 7 8 9 9 9 9 9 9 8 7 7 8 7 7 9 9 9 8 8 8 7
4 3 1 1 2 3 3 4 5 6 7 8 7 8 9 10 11 11 11 12 12 13 14 14 13 12 12 12 13 14 15 15 16 16 15 15 15 16 16 16 16 16 16 16 16 15 15 14 14 14 13 12 11 9 8 7 6 6 7 7 7 7 7 7 7 7 8 8 8 8 9 8 8 7 7 7 7 6 7 8 8 8 8 8 7
3 2 2 1 2 2 3 4 5 7 7 7 7 8 10 11 12 12 12 13 13 14 14 14 14 14 14 14 15 16 16 17 17 18 17 17 17 17 18 18 18 19 19 19 19 18 18 17 17 16 16 15 14 13 12 10 8 7 6 6 6 7 7 6 6 6 7 7 7 7 7 6 6 6 6 6 6 6 6 6 7 7 7 7 8
3 2 1 1 2 2 3 4 5 7 7 7 8 9 10 11 12 13 13 13 14 14 14 15 15 15 15 15 16 16 17 18 19 20 20 20 19 19 19 20 20 21 21 21 20 20 20 19 18 17 17 17 16 16 16 15 13 10 8 7 6 6 6 5 5 6 6 6 6 5 5 4 4 3 3 4 5 5 5 5 6 6 6 7 7
3 2 0 1 2 2 3 4 5 7 7 7 8 10 11 12 13 13 14 14 14 14 15 16 17 16 16 16 16 17 18 19 20 21 21 21 20 20 20 21 21 22 21 21 21 21 20 19 19 19 19 19 18 18 18 17 16 14 12 10 8 6 5 5 4 4 5 5 5 4 4 3 3 3 2 2 2 3 4 4 5 5 5 6 7
3 2 0 2 2 2 3 5 5 6 7 8 9 11 12 13 13 14 14 14 15 15 17 17 17 17 16 16 17 18 19 20 21 21 21 20 20 20 20 21 21 21 20 20 20 20 19 19 19 19 19 19 19 19 19 18 18 16 15 13 11 9 7 6 5 5 4 4 4 3 3 3 3 4 4 3 3 3 3 4 4 5 5 6 6
3 2 1 3 3 3 4 5 6 7 7 9 10 12 13 13 14 14 15 15 16 17 18 18 18 17 16 16 18 19 20 20 20 20 20 19 19 19 19 19 19 19 19 18 18 18 18 17 17 17 17 18 18 18 18 18 18 17 16 15 14 12 10 9 8 7 6 5 4 2 2 2 2 3 4 4 4 4 4 4 4 5 5 6 6
3 1 2 3 4 4 5 6 6 7 8 10 12 13 13 13 14 15 16 16 17 18 18 18 18 17 17 17 18 19 19 19 19 19 18 18 17 17 17 17 17 18 18 17 17 17 17 16 15 15 15 16 16 16 16 16 16 16 16 16 15 14 13 12 11 10 8 7 5 3 2 1 1 2 3 4 4 4 5 5 5 5 6 6 7
2 1 4 4 5 5 6 7 7 8 9 11 13 13 14 14 15 16 17 18 19 19 19 18 18 18 17 17 17 18 18 18 17 17 17 16 16 17 17 17 17 17 17 16 16 16 16 15 15 15 15 15 15 15 15 15 15 14 14 14 13 13 13 12 12 12 11 10 8 6 5 3 1 1 1 2 3 4 5 5 6 6 6 7 7
2 3 5 5 6 7 8 8 8 8 10 12 13 14 14 15 16 17 18 19 19 19 19 19 18 18 17 17 17 17 17 17 16 16 16 16 16 17 17 17 17 17 16 16 16 16 15 15 15 15 14 14 14 14 14 14 14 13 13 13 12 12 11 11 11 11 11 10 10 8 7 6 4 3 2 1 1 3 4 5 6 6 7 7 8
3 5 6 6 7 9 9 9 9 9 10 12 14 14 15 15 16 17 18 19 19 19 19 19 19 18 17 16 16 16 16 15 15 14 15 15 16 17 17 17 17 17 16 16 15 15 15 15 15 14 14 14 13 13 14 14 13 13 13 13 12 11 10 10 10 10 9 9 9 8 8 7 6 6 5 4 2 1 2 4 5 5 6 7 8
5 6 7 7 8 10 10 10 10 11 11 13 14 15 15 15 16 17 18 19 19 20 20 19 19 18 16 15 15 14 14 14 14 13 13 14 15 16 16 17 17 17 16 16 15 15 14 14 14 14 14 13 13 13 13 13 13 13 13 13 12 11 10 10 9 9 8 8 8 7 6 6 7 6 6 5 4 3 2 1 2 3 5 6 7
6 8 8 8 9 10 11 11 11 11 13 14 15 15 15 15 16 17 18 18 19 20 20 19 18 17 16 15 14 13 13 13 13 13 13 13 14 15 16 16 16 16 16 15 15 15 14 13 13 13 13 13 13 13 13 13 13 13 13 12 12 11 10 10 9 9 8 8 7 7 6 6 6 6 6 5 5 4 4 3 3 2 2 3 4
8 9 9 9 10 12 12 12 12 12 13 15 15 16 15 15 16 18 18 18 19 19 19 19 18 16 15 14 13 12 12 12 12 12 12 13 14 14 15 15 15 15 15 14 14 14 13 13 12 11 12 13 13 13 13 12 12 12 12 12 12 11 10 9 9 9 9 8 8 7 7 7 7 6 6 6 5 5 5 5 5 5 4 3 3
9 10 10 11 12 12 13 12 12 12 13 15 16 16 15 15 16 17 18 18 19 19 19 18 17 16 14 13 12 11 11 11 11 12 12 12 13 13 14 14 14 14 14 14 13 13 13 12 12 10 10 11 12 13 13 12 11 11 11 11 11 11 11 9 9 9 9 9 8 8 8 8 8 7 7 6 6 6 6 6 5 5 5 5 4
11 11 11 12 13 13 13 12 12 13 14 14 15 16 15 16 17 17 18 18 18 18 17 17 16 15 13 12 11 11 11 11 10 11 11 11 12 12 13 13 13 13 13 13 12 12 12 11 11 10 10 9 9 10 12 11 10 10 10 10 11 11 11 9 9 9 9 9 8 9 9 9 9 8 8 7 6 7 7 6 5 4 4 4 3
12 11 12 12 13 14 14 12 12 13 13 14 14 15 15 16 17 18 18 18 18 17 16 15 14 14 13 12 11 10 10 10 10 9 10 10 11 11 11 12 12 12 11 11 10 10 10 9 8 9 9 9 8 8 10 10 9 9 9 9 10 11 10 9 9 9 9 9 9 9 9 9 9 9 8 7 7 7 7 6 6 5 5 4 3
14 13 13 13 13 14 14 13 12 12 13 14 14 15 15 16 18 18 18 18 17 16 15 14 14 13 12 11 10 10 10 9 9 8 9 9 9 10 10 10 10 10 10 9 8 8 7 7 6 7 7 7 7 7 7 8 8 8 7 8 9 10 10 9 9 9 9 10 9 9 10 10 10 9 8 8 7 7 7 7 7 6 6 5 5
16 15 14 13 13 14 14 13 13 13 13 14 15 15 16 17 18 19 18 18 17 16 15 14 13 12 11 11 10 10 9 9 9 8 8 8 8 9 9 9 9 10 9 8 7 6 5 5 5 6 5 5 6 6 5 5 7 7 6 6 7 8 9 9 9 9 9 9 9 8 9 9 9 9 8 8 7 7 7 7 7 6 6 6 7
16 16 15 14 13 13 13 13 13 13 14 14 15 16 17 18 18 19 18 17 16 15 15 14 13 12 11 10 10 9 9 9 9 9 8 8 8 8 8 9 9 9 8 8 7 6 5 4 4 4 4 3 4 4 3 3 4 5 5 4 5 6 6 7 7 7 7 8 7 7 7 7 8 8 8 8 8 7 7 7 7 6 6 6 7
16 16 16 15 14 13 13 13 13 14 14 15 16 17 18 18 18 18 18 17 16 15 14 14 13 12 11 10 10 9 9 9 9 9 8 8 7 7 8 8 8 7 7 7 6 5 5 4 3 2 3 3 3 3 2 2 2 2 3 3 3 4 4 4 5 6 6 6 6 6 6 6 7 7 7 7 7 7 7 7 7 6 6 7 7
17 17 17 16 14 13 12 13 14 14 15 15 16 16 17 17 17 17 17 16 15 14 14 13 12 11 11 11 10 10 10 10 9 8 8 7 6 6 6 6 7 7 6 6 5 5 5 4 3 1 2 2 3 3 1 1 1 1 0 1 2 3 2 2 3 4 4 4 4 5 5 5 6 7 7 8 8 8 8 8 7 6 6 7 7
17 17 16 16 14 13 12 13 14 15 15 15 16 16 16 16 16 15 15 15 14 13 13 12 12 11 11 11 11 11 10 10 9 8 7 5 5 5 6 6 7 7 7 6 5 5 5 4 4 2 1 1 1 2 1 1 1 2 2 1 1 2 1 1 3 3 4 4 4 4 4 5 5 5 6 7 8 8 8 8 9 8 8 8 8
16 16 17 16 15 13 13 13 14 15 15 15 16 15 15 15 14 14 14 13 13 12 12 11 11 11 11 11 11 11 10 10 9 7 6 4 4 4 5 6 6 6 6 6 6 6 5 5 4 3 3 2 2 1 1 1 2 3 3 3 2 2 1 1 2 3 4 5 5 4 5 6 5 5 6 6 7 8 8 8 9 9 9 9 9
16 16 16 15 14 13 12 13 14 15 16 16 15 15 15 14 14 14 13 13 12 12 11 11 10 10 11 11 12 11 11 10 8 6 4 3 3 4 5 5 6 6 6 6 6 7 6 5 4 4 4 4 3 2 1 1 2 3 3 4 4 3 3 3 3 4 4 5 6 5 6 7 7 6 6 6 6 7 8 8 8 8 8 8 9
17 16 15 14 13 13 12 13 13 14 15 15 16 16 15 15 14 14 13 12 12 11 10 10 9 10 11 11 11 11 10 9 7 5 3 2 3 4 5 5 5 5 5 6 7 6 6 5 4 5 5 4 4 3 3 2 1 3 4 4 4 4 4 4 4 5 5 5 6 6 7 8 8 8 8 7 7 7 8 8 8 9 9 9 9
17 15 14 13 13 13 13 14 14 13 14 15 16 16 16 15 14 13 12 12 11 10 10 9 10 10 11 11 11 10 9 8 6 4 2 2 3 4 4 4 4 5 6 7 7 6 6 5 5 5 4 4 4 4 4 3 3 4 4 5 5 5 5 5 5 6 6 6 6 6 7 8 9 9 9 9 9 10 10 10 9 10 10 10 10
17 15 14 14 14 14 14 15 14 14 14 15 15 15 14 14 13 12 12 12 11 10 10 10 10 11 11 12 11 10 9 7 5 3 1 2 3 4 4 4 4 5 6 6 6 6 6 6 6 5 4 4 5 5 5 5 5 5 5 6 6 6 7 7 6 7 7 7 7 7 7 8 8 9 10 11 11 11 12 12 12 11 12 12 12
18 17 16 15 14 14 14 14 15 15 14 14 13 13 13 12 12 12 11 11 10 10 10 11 12 12 12 12 11 10 8 6 4 2 1 2 2 3 3 4 4 5 6 5 5 5 5 5 5 5 5 5 6 6 6 7 6 6 7 7 7 7 7 7 7 8 8 7 7 7 7 7 8 9 11 12 13 13 14 15 15 14 14 13 14
18 17 15 14 14 14 14 15 15 15 14 13 13 12 11 11 11 11 11 10 10 11 12 13 13 13 12 12 11 9 7 5 3 2 2 2 1 2 3 3 4 5 5 4 3 3 3 3 4 5 5 5 6 6 7 7 7 7 7 8 8 7 8 8 9 9 9 9 8 7 7 7 9 10 11 13 14 15 15 15 16 15 15 15 15
18 17 15 14 14 15 16 16 16 15 14 13 12 11 10 10 10 11 12 12 12 12 13 13 12 12 11 10 8 7 6 4 3 1 1 2 1 1 3 3 3 4 4 3 2 2 3 3 4 5 5 5 6 7 8 9 9 8 8 8 8 8 8 8 9 9 9 9 8 8 8 9 10 10 11 12 13 15 15 15 15 15 16 15 15
17 17 17 17 17 17 17 17 16 15 14 13 12 11 10 10 10 11 12 12 11 11 11 12 12 11 10 9 8 8 6 5 3 1 1 2 2 1 2 2 3 3 3 3 3 3 3 4 5 5 6 7 7 8 9 10 10 10 9 8 7 7 7 8 8 8 8 8 8 8 9 10 10 11 11 11 12 13 14 14 15 15 15 15 15
18 18 18 18 18 17 17 16 15 14 13 12 11 11 10 10 10 10 10 10 11 11 11 12 12 11 10 10 10 9 8 6 4 2 1 2 2 2 2 2 2 3 4 4 3 3 3 4 5 6 7 7 7 8 9 10 11 11 10 9 8 7 7 7 8 8 8 9 9 9 9 10 11 11 11 10 11 12 12 13 14 14 15 14 14
18 18 18 17 17 17 16 16 15 14 13 11 11 11 10 10 10 9 9 10 11 12 12 12 11 12 12 11 10 10 8 6 4 3 3 3 3 3 2 2 2 3 4 5 3 2 2 3 5 6 7 8 8 9 10 10 11 11 10 10 9 8 7 7 8 8 9 10 10 11 11 11 11 11 11 10 11 11 12 13 14 15 15 15 15
18 17 17 17 17 17 17 17 15 14 13 12 12 11 11 11 10 9 9 10 10 11 12 13 13 13 13 12 11 10 9 7 5 5 4 4 4 4 3 2 3 4 5 5 3 2 1 3 4 6 8 9 10 10 10 10 11 11 10 10 10 9 9 9 9 9 10 11 11 11 11 11 11 11 11 10 10 11 11 11 12 13 15 16 17
19 19 19 18 17 16 16 16 15 14 14 13 13 13 12 11 10 10 11 11 10 10 12 13 13 13 13 13 12 11 10 8 6 6 6 6 6 6 5 3 3 5 6 6 4 2 1 2 4 7 9 9 10 10 10 11 11 10 10 10 10 10 10 10 11 11 11 11 11 11 10 10 10 10 10 10 10 11 11 12 12 12 13 14 15
17 18 18 17 16 16 16 15 15 14 13 13 13 13 12 12 11 12 12 12 10 10 12 12 13 13 13 13 12 11 10 8 8 8 8 7 7 7 6 5 4 5 7 6 5 3 2 2 5 7 8 9 9 9 10 10 10 9 9 9 9 9 9 10 10 11 11 11 11 11 10 9 9 10 11 11 12 12 13 13 14 14 14 14 14
Wind_Direction
122 117 113 112 119 120 122 125 113 104 113 118 101 89 93 95 97 100 99 94 93 95 99 100 99 95 92 90 89 88 87 90 95 98 101 101 103 103 102 101 99 100 103 106 110 110 104 97 93 93 93 89 87 91 103 115 121 123 122 120 116 113 111 112 114 118 126 134 135 131 132 129 128 129 128 126 124 127 137 146 147 145 141 138 136
118 113 110 113 119 120 121 116 114 106 108 114 91 81 92 97 101 101 97 94 95 98 99 97 95 92 90 88 86 85 87 92 94 96 100 103 103 102 102 100 99 101 104 107 107 107 105 104 100 95 95 94 92 92 98 111 118 117 116 113 107 104 102 104 107 110 114 119 122 121 124 125 125 128 126 124 121 123 133 144 147 145 140 138 138
120 114 110 116 118 117 116 113 115 110 110 107 87 93 104 102 103 100 96 94 96 97 95 94 91 89 87 85 83 84 86 87 86 90 95 98 99 101 101 100 100 99 102 102 100 101 105 110 109 104 101 102 103 101 101 108 115 114 113 110 105 100 97 99 102 104 104 108 110 109 112 113 116 123 126 125 122 121 129 141 145 145 141 139 141
129 117 109 109 109 109 110 112 114 109 110 103 98 111 109 101 99 95 94 95 97 96 94 93 89 86 84 82 81 82 83 82 84 87 89 90 93 97 99 100 99 99 100 100 101 103 108 113 113 112 112 114 114 109 106 107 110 114 113 111 108 103 100 100 101 104 105 107 107 105 104 103 106 113 120 122 122 120 126 137 143 144 143 142 146
137 113 106 109 107 110 109 107 107 105 109 111 113 113 99 94 93 93 94 96 96 94 94 90 85 83 80 79 79 80 82 85 89 87 84 84 87 91 93 95 96 99 101 102 106 107 111 115 116 117 118 117 115 114 114 109 106 111 112 110 109 107 105 105 104 105 106 107 107 106 103 99 98 102 112 119 119 119 122 131 139 143 144 145 150
132 108 111 118 114 114 109 102 99 101 111 113 110 99 90 90 91 93 96 97 95 93 91 85 82 80 77 77 79 81 85 88 86 81 78 78 81 84 88 91 94 98 103 105 106 108 111 115 118 120 119 115 112 112 116 118 113 112 111 104 105 109 108 108 108 107 108 107 107 105 102 98 94 95 104 117 120 118 119 125 134 140 144 147 153
125 115 121 125 120 116 109 102 102 108 117 112 104 93 89 90 92 96 97 95 93 90 86 83 83 80 80 82 83 85 86 83 78 75 74 74 75 78 84 90 94 99 104 106 107 109 111 113 116 119 118 113 110 107 110 118 122 123 116 106 101 107 109 109 109 108 108 107 108 106 104 101 97 96 99 110 118 121 121 125 132 137 143 149 156
130 125 129 128 122 116 109 108 115 122 123 112 100 93 91 94 99 100 96 93 90 86 84 84 84 85 88 87 86 84 78 72 69 69 70 72 72 75 77 83 93 100 105 108 110 112 112 112 112 110 109 107 105 102 100 102 122 134 126 116 107 104 105 105 107 109 109 109 109 110 110 107 103 102 101 106 114 121 125 128 132 137 143 151 159
133 126 128 126 118 113 109 113 120 121 115 105 100 97 98 102 105 100 93 89 85 84 84 85 88 91 89 85 82 76 70 65 64 67 68 70 71 72 72 74 86 100 108 110 112 112 110 106 102 100 97 97 98 98 98 96 114 132 127 120 115 108 104 99 102 106 108 109 111 114 115 113 111 109 108 109 112 117 123 127 132 138 144 150 159
127 124 125 122 115 112 112 118 118 110 105 104 105 105 106 109 105 96 90 85 83 83 84 85 88 88 83 79 75 69 66 64 65 68 68 68 68 69 69 71 79 97 112 115 114 110 105 102 99 96 93 91 92 97 103 104 110 122 128 129 122 115 108 101 100 101 102 104 109 116 121 120 118 118 116 115 116 118 122 126 130 135 141 147 153
128 127 122 114 110 112 119 124 115 104 105 110 114 113 112 110 102 92 87 83 82 83 83 84 83 81 77 73 69 66 64 64 66 67 67 65 64 65 68 72 78 93 106 111 111 109 103 100 99 96 95 95 96 101 107 111 110 112 122 136 130 119 116 108 101 100 99 101 104 110 122 127 126 126 124 122 123 124 125 127 129 133 138 144 148
126 125 115 108 108 118 128 127 113 106 112 119 122 118 113 107 97 90 86 84 82 82 83 83 80 76 72 68 65 64 62 62 64 65 67 66 65 66 71 75 79 87 95 98 102 106 102 97 96 96 99 101 102 104 104 107 108 110 111 123 132 128 126 119 108 101 100 101 101 103 112 127 134 134 130 128 129 127 128 131 133 135 138 143 147
112 114 105 108 122 140 144 127 114 115 123 128 128 120 111 102 95 90 87 84 83 84 86 84 80 75 70 67 66 65 65 65 66 69 71 72 74 75 77 78 80 86 91 94 98 102 102 99 100 99 97 97 99 100 103 107 109 112 108 110 126 136 132 125 117 108 104 103 104 105 105 114 128 139 140 136 136 136 135 136 137 140 142 145 150
83 92 96 118 162 183 158 130 122 126 129 132 129 118 106 98 94 91 88 87 87 88 90 87 83 78 74 71 69 70 71 72 74 75 77 80 80 80 82 84 87 89 91 95 98 101 102 101 100 94 87 85 88 92 100 108 113 115 111 108 119 137 139 130 124 114 107 103 103 106 106 108 114 126 135 138 147 149 143 142 142 145 148 149 155
63 65 72 163 207 191 158 135 129 130 132 132 125 112 102 97 94 92 91 91 92 94 94 91 88 84 81 78 77 79 79 80 81 82 84 85 85 86 87 90 92 92 92 93 94 94 92 89 87 84 81 77 76 82 91 102 112 118 119 116 115 129 139 138 135 125 114 106 101 99 102 106 109 113 114 123 143 151 147 149 153 155 157 159 163
58 48 27 269 214 186 161 142 133 131 131 129 119 107 101 99 97 96 96 96 97 99 97 95 93 91 89 88 87 86 86 86 87 89 89 89 90 90 91 92 92 92 90 90 89 89 88 85 82 81 78 75 72 70 74 85 99 113 121 123 118 122 133 141 148 143 130 120 112 103 98 98 101 108 111 119 130 135 143 154 161 165 168 170 172
49 33 12 282 199 181 162 147 135 133 132 126 114 105 104 104 103 101 101 102 103 102 100 100 99 99 98 95 93 91 91 91 91 92 92 94 94 94 94 93 92 91 89 89 89 90 90 88 85 82 78 74 71 69 71 77 85 96 111 121 123 122 126 138 154 160 152 143 136 125 113 102 97 99 107 115 120 125 134 144 154 162 171 178 180
31 15 22 139 177 181 162 146 138 136 133 125 113 108 110 110 109 107 106 107 107 105 104 105 106 105 103 100 98 96 96 95 95 95 96 97 97 97 96 94 93 92 90 89 89 89 89 88 86 82 78 76 74 74 74 76 79 82 89 101 116 123 124 131 146 159 162 162 162 153 142 131 121 110 107 109 113 122 129 134 142 153 165 173 180
10 359 51 138 161 179 156 144 142 139 132 122 115 115 118 117 115 112 111 112 110 109 109 110 111 110 108 105 103 101 100 99 98 99 100 100 99 98 97 96 95 94 92 89 89 89 89 88 86 83 80 78 76 76 76 76 77 79 81 83 93 106 117 123 130 140 152 161 169 171 170 169 169 169 166 147 127 128 133 138 143 154 163 167 174
349 343 177 145 157 166 151 147 146 142 133 123 119 122 124 122 119 117 116 115 114 115 115 116 116 114 112 109 107 105 103 101 100 101 101 101 100 98 96 96 95 93 91 89 88 87 87 86 85 83 81 79 77 77 76 76 76 77 79 80 83 89 95 99 102 104 112 126 138 157 172 178 188 193 196 197 188 177 166 161 160 161 167 170 172
335 324 182 152 155 156 149 153 152 147 136 127 124 126 127 124 121 120 119 119 120 121 120 120 119 118 116 114 111 109 107 105 103 102 102 102 100 98 96 94 93 92 89 87 85 83 82 80 79 79 78 79 78 77 76 76 76 76 77 79 80 82 84 85 85 85 84 85 94 114 127 139 167 188 197 201 202 201 196 188 183 178 176 179 182
320 286 178 160 156 156 153 157 158 150 136 128 128 129 128 125 123 122 122 123 124 124 124 123 122 122 121 119 116 113 111 108 106 104 104 102 100 98 95 92 89 88 86 84 82 81 80 77 75 75 74 75 76 76 76 75 76 76 76 76 78 78 78 78 78 78 77 76 76 78 82 103 149 177 193 209 215 212 209 207 202 199 192 190 193
302 218 178 168 161 158 158 161 159 148 135 130 131 131 130 127 126 125 125 127 128 128 127 126 126 126 126 124 121 118 114 111 108 106 105 104 101 98 95 91 87 85 82 81 81 81 80 77 75 73 71 70 70 72 73 72 72 72 74 74 74 75 75 74 74 75 75 75 73 72 70 72 82 141 182 230 245 234 225 221 215 212 210 206 205
254 194 178 175 168 162 162 162 156 144 135 133 134 134 132 130 128 128 129 130 131 131 130 129 130 131 131 129 125 120 116 113 110 108 107 105 102 99 97 94 90 87 84 81 78 77 76 75 72 70 67 65 65 67 69 70 69 69 70 70 70 72 73 72 71 71 72 72 72 70 69 67 62 60 62 44 295 270 249 239 232 225 221 219 219
199 184 178 179 175 167 162 160 152 141 135 135 136 136 134 133 132 132 133 133 133 133 133 134 134 134 134 131 127 122 117 114 111 108 106 104 101 98 97 95 93 91 88 84 81 78 76 75 74 71 68 65 64 64 66 66 65 65 65 65 66 67 69 70 70 70 69 68 68 65 64 63 60 60 58 59 47 344 273 255 251 246 239 232 231
186 182 178 178 178 169 160 156 149 139 136 137 137 137 136 134 135 135 136 135 136 136 137 138 138 137 136 132 128 123 119 116 112 109 104 101 98 96 94 93 92 91 89 88 86 83 81 79 77 76 73 69 66 63 62 61 61 60 60 60 62 63 63 66 70 70 70 68 66 62 59 58 57 57 52 50 52 44 24 333 289 274 264 251 245
183 182 180 177 176 170 161 155 147 140 139 140 141 139 137 136 138 139 139 138 139 140 141 141 141 139 137 134 131 127 123 119 117 113 107 102 98 95 93 91 90 88 87 85 85 84 83 81 79 78 77 75 71 67 63 59 57 56 55 55 57 59 56 58 64 66 67 65 63 60 55 54 55 52 46 42 44 44 38 33 28 2 316 284 267
182 181 181 176 174 170 163 155 148 142 141 143 144 142 140 140 142 142 142 142 142 143 144 143 143 141 138 136 134 131 128 124 122 117 112 105 99 95 93 91 89 87 85 83 82 82 82 81 80 79 79 79 78 75 70 62 56 54 54 53 53 55 52 49 55 60 63 61 58 54 47 48 52 52 46 41 39 34 32 39 44 38 29 14 348
178 181 181 177 174 170 164 156 148 143 144 146 146 144 143 144 145 147 147 146 147 147 146 146 144 142 139 138 137 135 132 128 125 119 112 106 100 96 93 91 88 85 83 81 79 80 81 82 82 79 74 74 76 78 78 71 63 58 54 53 53 54 52 46 46 51 56 56 52 48 44 43 47 48 45 41 38 34 30 36 43 41 41 38 29
175 180 181 179 174 170 166 159 151 146 147 148 146 145 146 148 149 151 152 151 150 149 148 147 145 143 141 140 139 137 133 129 124 117 111 106 101 98 95 93 91 87 82 78 75 74 75 77 79 81 80 76 73 76 80 78 72 67 61 56 54 55 53 48 44 44 50 51 45 43 41 42 45 43 42 39 34 35 31 27 34 40 47 49 34
173 177 182 181 175 170 168 163 157 152 150 150 148 147 149 151 152 153 155 153 152 151 149 148 146 144 143 142 140 137 133 129 124 117 111 106 103 100 98 97 96 92 86 80 75 71 71 73 76 83 86 84 78 74 79 81 76 71 66 59 56 56 55 51 46 41 44 46 41 36 35 37 42 41 40 39 35 34 31 25 25 25 36 40 20
171 175 180 181 175 171 171 167 163 159 155 153 150 151 153 153 154 155 155 155 153 152 150 149 147 146 145 143 141 137 132 127 123 118 113 108 104 101 98 96 95 91 86 80 73 69 71 75 74 71 74 78 81 76 77 84 84 76 66 60 57 57 56 54 50 45 43 44 39 33 31 31 34 35 35 35 33 33 32 30 25 20 24 20 8
169 172 176 179 175 172 171 170 167 165 160 156 154 155 155 155 156 157 157 156 155 154 152 151 150 148 147 145 142 138 134 130 126 124 119 113 106 99 94 89 85 82 79 73 66 60 61 71 75 72 73 79 81 75 70 78 86 84 73 61 56 56 57 56 56 54 51 52 44 35 31 29 30 31 31 28 25 26 29 30 26 21 20 16 14
168 172 176 177 176 172 171 171 169 166 164 160 158 158 157 157 157 158 159 158 157 156 155 154 153 152 149 146 143 140 137 134 131 129 125 117 107 96 88 82 76 72 68 63 54 45 40 52 75 87 91 93 92 85 71 61 68 85 88 73 60 58 56 55 59 60 60 61 54 39 32 30 30 29 30 26 17 16 21 23 24 19 11 12 18
171 175 178 178 177 175 174 173 170 167 167 165 163 161 160 159 159 159 159 159 159 158 156 155 155 153 151 149 148 146 142 138 134 130 124 114 104 92 82 72 64 57 53 46 35 25 13 17 45 97 119 125 123 118 97 57 29 64 95 94 77 66 56 47 50 54 55 60 59 44 28 27 28 27 29 26 14 10 10 9 16 17 2 2 12
178 178 180 181 179 178 176 174 173 170 170 169 168 166 164 162 161 162 161 161 160 159 158 157 156 154 153 154 154 153 148 143 138 131 122 111 98 82 68 56 46 36 31 26 15 2 350 350 357 33 131 138 140 142 142 109 316 298 53 104 92 77 63 34 28 34 32 34 47 39 21 19 22 22 23 23 14 8 4 360 2 4 355 351 354
182 179 181 185 183 181 179 178 176 175 174 174 174 171 170 168 166 166 165 164 162 161 162 161 160 159 158 159 158 156 151 146 141 132 122 108 87 64 49 38 29 20 12 4 354 347 341 332 327 334 20 87 119 141 168 205 256 273 290 331 52 68 67 7 1 4 355 349 9 18 0 356 6 13 14 14 11 5 2 358 354 353 351 345 340
183 180 184 187 186 185 184 181 178 178 179 178 177 175 174 174 172 172 170 168 167 167 168 168 168 168 166 163 160 157 153 148 142 135 123 104 71 46 35 27 20 10 1 353 347 346 341 332 332 345 4 19 23 47 171 219 252 271 292 321 344 359 332 323 343 342 332 323 332 347 337 332 342 355 1 1 359 354 353 353 351 349 348 343 335
183 182 186 187 186 190 190 184 180 181 182 180 179 178 177 178 179 178 177 175 174 172 172 174 174 174 171 165 161 158 154 150 145 137 125 96 58 38 29 25 17 8 1 357 357 355 349 344 351 4 10 7 2 2 351 256 255 277 297 317 326 324 314 319 329 319 311 308 314 325 323 322 329 337 344 343 340 338 336 338 341 342 342 341 335
182 183 185 186 188 192 192 188 187 184 182 181 181 181 181 183 184 184 182 180 177 176 176 176 176 175 172 166 162 159 155 152 148 139 123 79 47 36 31 27 20 18 18 17 15 12 9 8 12 17 13 5 3 5 358 337 314 313 315 319 318 313 311 317 315 305 302 301 304 313 314 316 322 326 330 328 324 323 322 323 325 327 328 330 330
180 180 181 185 188 190 191 190 189 186 184 184 183 184 184 186 187 186 185 183 181 179 179 178 175 172 169 166 163 161 157 155 152 141 111 54 35 33 33 32 32 35 35 33 31 32 35 38 40 36 24 17 19 16 13 10 3 342 326 323 324 322 320 320 312 304 302 301 304 310 311 313 316 318 320 319 319 318 317 316 315 315 316 318 321
180 179 179 185 187 188 190 187 186 187 186 186 184 185 186 186 186 186 186 185 182 180 179 176 173 171 168 166 165 164 163 162 156 140 93 33 23 29 32 38 49 48 43 41 42 47 52 55 56 52 41 36 32 25 24 19 9 356 343 339 341 338 331 326 320 314 311 311 315 318 316 314 313 313 315 316 318 320 317 314 312 313 313 313 314
182 180 181 182 182 183 183 181 184 187 186 185 184 185 185 185 184 186 188 185 179 179 178 176 175 173 171 170 171 171 170 168 157 137 85 34 22 28 34 46 57 52 45 46 50 55 59 58 59 54 44 37 30 26 25 18 6 358 350 346 347 343 336 331 327 325 325 327 329 328 323 317 313 313 317 318 320 320 317 315 316 318 318 316 314
183 182 180 176 177 179 176 177 183 185 184 184 184 183 182 182 183 185 187 184 182 184 183 181 180 177 176 176 175 176 177 175 163 135 79 43 32 37 37 45 52 45 40 43 47 46 41 41 46 44 37 31 25 24 22 13 2 352 345 339 337 335 332 330 328 328 329 330 331 330 322 313 312 316 319 319 318 318 317 317 318 320 320 318 315
186 182 178 174 177 179 178 180 183 182 182 182 180 179 181 182 183 184 187 188 190 190 188 186 184 182 182 180 179 183 188 193 184 144 67 32 28 30 32 37 40 31 25 19 1 349 351 7 23 30 31 30 29 26 22 16 9 1 352 342 333 330 330 329 329 329 329 326 324 323 319 316 318 322 320 317 316 317 317 318 320 320 319 318 315
189 185 179 178 179 180 180 182 183 183 183 180 176 179 184 185 187 189 190 191 193 194 192 191 190 189 187 186 189 196 204 214 211 194 3 7 3 356 14 22 19 12 3 348 326 317 331 357 13 21 23 25 24 22 19 17 15 14 11 4 354 344 339 336 336 337 337 335 331 327 324 324 327 331 330 325 323 323 323 323 324 323 322 321 318
194 190 184 182 182 180 180 182 186 187 186 180 178 183 189 192 195 194 191 191 193 196 199 199 197 196 196 198 202 206 213 221 223 231 286 330 333 324 340 355 352 346 340 326 311 307 335 3 13 14 16 16 17 18 17 14 15 19 20 19 16 5 354 346 344 346 344 340 336 333 331 332 335 340 341 336 333 334 333 332 331 329 329 329 326
195 192 188 185 183 181 182 184 187 188 186 184 183 190 197 203 205 202 197 196 192 194 202 206 206 205 205 209 214 217 222 228 233 243 268 300 309 306 311 322 327 321 319 313 298 291 338 7 13 12 14 16 18 20 17 14 14 18 18 17 14 6 357 349 346 346 343 337 333 331 332 336 340 343 345 342 341 341 340 338 337 336 336 336 335
189 189 191 189 185 183 182 183 185 185 186 186 189 197 204 210 215 215 215 210 197 193 201 208 212 213 213 216 220 226 234 240 246 255 270 288 297 297 293 292 300 300 304 301 280 268 326 6 14 15 20 21 20 18 15 12 12 11 9 6 2 355 347 342 339 339 338 335 332 331 333 337 341 343 345 343 340 338 337 336 335 334 333 334 334
182 185 189 190 187 185 183 182 184 185 186 188 194 201 207 212 217 222 226 222 209 201 206 210 213 217 219 222 226 231 239 247 254 262 273 284 291 290 282 275 276 284 293 288 264 251 290 1 18 22 25 21 14 11 9 6 4 1 359 357 352 347 341 337 336 336 336 335 332 330 332 336 339 340 341 342 340 338 335 333 330 327 327 326 326
185 186 187 186 187 186 184 185 186 186 187 191 197 203 209 214 218 222 226 227 219 213 217 217 216 219 224 228 233 239 245 251 255 262 271 282 288 287 277 266 262 273 284 277 257 251 275 356 22 28 26 17 10 8 6 3 360 357 358 358 355 349 343 338 337 336 336 337 333 329 327 328 332 334 336 339 341 341 338 335 331 327 325 323 322
Height
5902 5902 5902 5903 5903 5902 5902 5902 5902 5902 5902 5903 5903 5904 5903 5902 5903 5905 5906 5906 5907 5908 5909 5910 5910 5910 5909 5909 5908 5909 5909 5910 5910 5911 5911 5912 5912 5912 5911 5911 5911 5911 5911 5911 5912 5912 5912 5913 5913 5913 5913 5914 5914 5914 5914 5914 5914 5914 5915 5915 5915 5915 5915 5915 5915 5915 5915 5915 5915 5914 5914 5914 5914 5914 5914 5915 5915 5915 5915 5916 5917 5917 5918 5919 5920
5902 5902 5902 5903 5903 5903 5902 5902 5902 5902 5903 5904 5903 5903 5903 5903 5905 5906 5907 5907 5908 5909 5910 5910 5910 5909 5909 5909 5908 5909 5909 5910 5910 5911 5912 5912 5913 5912 5912 5912 5912 5912 5912 5912 5912 5912 5913 5913 5914 5914 5914 5914 5915 5915 5915 5915 5915 5915 5915 5915 5915 5915 5915 5915 5915 5916 5916 5916 5915 5915 5915 5915 5915 5915 5915 5915 5915 5915 5916 5916 5917 5918 5919 5920 5921
5902 5903 5903 5903 5903 5903 5903 5902 5903 5903 5904 5904 5904 5904 5905 5905 5907 5908 5908 5909 5909 5910 5910 5910 5909 5909 5909 5909 5909 5909 5910 5910 5910 5911 5912 5913 5913 5913 5913 5913 5913 5914 5913 5913 5913 5913 5913 5914 5914 5914 5914 5915 5915 5915 5916 5916 5915 5915 5915 5916 5916 5916 5916 5916 5916 5916 5916 5916 5916 5916 5916 5916 5915 5915 5915 5915 5915 5916 5916 5917 5918 5919 5919 5920 5921
5903 5904 5904 5903 5903 5903 5903 5903 5904 5904 5904 5904 5904 5905 5907 5908 5908 5909 5909 5910 5910 5910 5910 5909 5909 5909 5909 5909 5909 5910 5910 5910 5911 5912 5912 5913 5913 5913 5913 5914 5914 5914 5914 5914 5914 5914 5914 5914 5914 5914 5915 5915 5916 5916 5916 5916 5915 5915 5916 5916 5916 5916 5916 5917 5917 5917 5917 5917 5917 5917 5917 5917 5916 5916 5916 5916 5916 5916 5917 5917 5918 5919 5920 5921 5922
5904 5904 5904 5903 5903 5903 5904 5904 5904 5904 5904 5904 5905 5907 5908 5909 5909 5909 5910 5910 5911 5910 5910 5909 5909 5909 5909 5909 5910 5910 5910 5911 5912 5912 5912 5913 5913 5913 5913 5914 5914 5914 5914 5914 5915 5915 5915 5915 5915 5915 5915 5915 5916 5916 5915 5915 5915 5915 5916 5916 5916 5917 5917 5917 5917 5917 5918 5918 5918 5918 5918 5918 5917 5917 5916 5917 5917 5917 5918 5918 5919 5920 5921 5922 5922
5904 5905 5905 5904 5904 5905 5905 5905 5905 5904 5904 5905 5906 5908 5909 5909 5910 5910 5911 5911 5911 5910 5909 5909 5909 5909 5910 5910 5910 5911 5911 5912 5912 5912 5912 5913 5913 5913 5913 5914 5914 5914 5914 5915 5915 5915 5915 5915 5915 5915 5915 5916 5916 5916 5915 5915 5915 5916 5916 5916 5917 5917 5917 5918 5918 5918 5918 5918 5918 5919 5919 5918 5918 5918 5917 5918 5918 5918 5918 5919 5920 5921 5922 5923 5923
5905 5906 5906 5906 5906 5906 5906 5906 5906 5906 5906 5906 5908 5909 5909 5910 5910 5911 5911 5911 5910 5910 5909 5910 5910 5910 5911 5911 5911 5912 5912 5912 5912 5912 5912 5913 5913 5913 5913 5913 5914 5914 5914 5915 5915 5915 5915 5915 5915 5915 5916 5916 5916 5916 5916 5916 5916 5916 5916 5917 5917 5918 5918 5918 5918 5919 5919 5919 5919 5919 5919 5919 5919 5919 5918 5918 5919 5919 5919 5920 5921 5921 5922 5923 5924
5906 5907 5907 5907 5907 5907 5908 5908 5908 5908 5908 5909 5909 5910 5910 5911 5911 5911 5911 5911 5910 5910 5910 5911 5911 5911 5912 5912 5912 5912 5912 5912 5912 5912 5912 5912 5912 5912 5912 5913 5913 5914 5914 5914 5915 5915 5915 5916 5916 5916 5916 5916 5916 5917 5916 5916 5916 5916 5917 5917 5917 5918 5918 5919 5919 5919 5920 5919 5919 5919 5920 5919 5919 5920 5919 5919 5920 5920 5920 5921 5921 5922 5923 5924 5925
5907 5907 5908 5908 5908 5908 5908 5909 5909 5909 5910 5910 5910 5911 5911 5911 5911 5911 5911 5911 5910 5911 5911 5912 5912 5913 5913 5913 5913 5912 5912 5912 5912 5912 5912 5912 5912 5912 5912 5912 5913 5914 5914 5915 5915 5915 5915 5916 5916 5916 5916 5916 5917 5917 5917 5917 5917 5917 5917 5917 5918 5918 5918 5919 5919 5919 5920 5920 5920 5920 5920 5920 5920 5920 5920 5920 5920 5921 5921 5922 5922 5923 5923 5924 5925
5908 5908 5909 5909 5909 5909 5909 5909 5910 5910 5911 5911 5911 5912 5912 5912 5912 5912 5911 5911 5911 5912 5912 5913 5913 5913 5913 5913 5913 5913 5912 5912 5912 5912 5912 5912 5912 5912 5912 5912 5913 5914 5914 5915 5915 5915 5916 5916 5916 5916 5916 5916 5916 5917 5917 5917 5917 5917 5917 5918 5918 5919 5919 5919 5919 5920 5920 5920 5920 5920 5920 5920 5920 5920 5921 5921 5921 5921 5922 5922 5923 5923 5924 5924 5925
5908 5909 5909 5910 5910 5910 5910 5910 5911 5911 5912 5912 5912 5912 5912 5912 5912 5912 5912 5912 5912 5913 5913 5914 5914 5913 5913 5913 5913 5913 5913 5913 5913 5913 5913 5913 5913 5913 5913 5913 5913 5914 5914 5915 5915 5915 5916 5916 5916 5916 5916 5916 5916 5916 5916 5917 5917 5917 5918 5918 5918 5919 5919 5919 5920 5920 5920 5920 5920 5920 5921 5921 5921 5921 5921 5921 5921 5922 5922 5923 5923 5924 5924 5925 5925
5909 5910 5910 5910 5910 5910 5911 5911 5912 5912 5913 5913 5913 5913 5913 5913 5913 5912 5912 5913 5913 5914 5914 5914 5914 5914 5913 5913 5913 5913 5913 5913 5913 5914 5914 5914 5914 5914 5913 5913 5913 5914 5914 5915 5915 5915 5916 5916 5916 5916 5916 5916 5916 5916 5916 5917 5917 5918 5918 5918 5918 5919 5919 5919 5920 5920 5920 5920 5920 5920 5921 5921 5921 5921 5921 5922 5922 5922 5923 5923 5924 5924 5925 5925 5925
5909 5910 5910 5910 5911 5911 5911 5912 5912 5913 5913 5913 5913 5913 5913 5913 5913 5913 5913 5913 5914 5915 5915 5915 5914 5914 5914 5914 5914 5914 5914 5914 5914 5914 5914 5915 5915 5915 5914 5914 5914 5914 5915 5915 5915 5916 5916 5916 5916 5916 5916 5916 5916 5916 5916 5917 5917 5918 5918 5919 5919 5919 5919 5920 5920 5920 5920 5920 5920 5920 5921 5921 5921 5921 5921 5922 5922 5922 5923 5923 5924 5924 5925 5925 5926
5910 5910 5911 5911 5911 5911 5912 5912 5913 5913 5914 5914 5914 5914 5914 5914 5914 5914 5914 5914 5915 5915 5915 5915 5915 5915 5915 5915 5915 5915 5915 5915 5915 5915 5915 5916 5916 5916 5916 5916 5915 5915 5916 5916 5916 5916 5916 5916 5917 5917 5916 5916 5916 5916 5916 5916 5917 5917 5918 5919 5919 5919 5920 5920 5920 5920 5920 5920 5921 5921 5921 5921 5921 5921 5921 5922 5922 5922 5923 5923 5924 5925 5925 5925 5926
5910 5911 5911 5911 5911 5912 5912 5913 5913 5914 5914 5914 5914 5914 5914 5914 5914 5914 5915 5915 5916 5916 5916 5916 5916 5916 5916 5916 5916 5917 5917 5917 5916 5916 5917 5917 5917 5917 5917 5917 5917 5917 5917 5917 5917 5917 5917 5917 5917 5917 5917 5917 5916 5916 5916 5916 5917 5917 5918 5918 5919 5919 5920 5920 5921 5921 5921 5921 5921 5922 5922 5921 5921 5921 5921 5922 5922 5923 5923 5923 5924 5925 5925 5925 5926
5910 5911 5911 5911 5911 5912 5912 5913 5913 5914 5914 5914 5915 5915 5915 5915 5915 5915 5916 5916 5917 5917 5917 5917 5917 5917 5917 5918 5918 5918 5918 5918 5918 5918 5918 5918 5919 5919 5919 5919 5919 5918 5918 5918 5918 5918 5918 5918 5918 5918 5918 5917 5917 5917 5917 5916 5917 5917 5917 5918 5919 5919 5920 5921 5921 5922 5922 5922 5922 5922 5922 5922 5922 5921 5921 5922 5922 5923 5923 5923 5924 5924 5925 5925 5926
5910 5911 5911 5912 5912 5912 5912 5913 5913 5914 5914 5915 5915 5915 5915 5915 5916 5916 5917 5917 5917 5917 5917 5918 5918 5918 5919 5919 5920 5920 5920 5919 5919 5919 5920 5920 5920 5920 5920 5920 5920 5920 5920 5920 5920 5920 5920 5920 5920 5919 5919 5919 5918 5918 5918 5917 5917 5917 5918 5918 5919 5920 5920 5921 5922 5922 5922 5922 5922 5922 5922 5922 5922 5922 5922 5922 5922 5923 5923 5924 5924 5924 5925 5925 5926
5910 5911 5911 5912 5912 5912 5912 5913 5914 5914 5914 5915 5915 5916 5916 5916 5916 5917 5917 5918 5918 5918 5918 5919 5919 5920 5920 5921 5921 5921 5921 5920 5920 5921 5921 5922 5922 5922 5922 5922 5922 5921 5921 5921 5921 5921 5921 5921 5921 5921 5920 5920 5920 5919 5919 5919 5918 5918 5919 5919 5920 5920 5921 5921 5922 5922 5922 5922 5922 5922 5922 5922 5922 5922 5923 5923 5923 5923 5924 5924 5924 5924 5924 5925 5925
5911 5911 5911 5912 5912 5912 5912 5913 5914 5914 5915 5915 5916 5916 5916 5917 5917 5918 5918 5919 5919 5919 5920 5920 5921 5921 5922 5922 5922 5923 5922 5922 5922 5923 5923 5923 5924 5924 5924 5924 5923 5923 5923 5923 5922 5922 5923 5923 5923 5923 5922 5921 5921 5921 5920 5920 5920 5920 5920 5920 5921 5921 5921 5922 5922 5922 5922 5922 5922 5922 5923 5923 5923 5923 5923 5923 5924 5924 5924 5924 5924 5924 5924 5925 5925
5911 5911 5911 5912 5912 5912 5913 5913 5914 5914 5915 5915 5916 5916 5917 5917 5918 5919 5919 5920 5920 5920 5921 5921 5922 5922 5923 5923 5924 5924 5924 5924 5924 5925 5925 5925 5925 5925 5925 5925 5925 5924 5924 5924 5924 5924 5924 5924 5924 5924 5924 5923 5923 5922 5922 5922 5922 5921 5921 5921 5922 5922 5922 5922 5923 5923 5923 5923 5923 5923 5923 5923 5923 5923 5923 5923 5924 5924 5924 5924 5924 5924 5925 5925 5925
5911 5911 5911 5912 5912 5912 5913 5914 5914 5915 5915 5916 5917 5917 5918 5918 5919 5919 5920 5920 5921 5921 5922 5923 5923 5924 5924 5925 5925 5925 5925 5925 5926 5926 5927 5927 5927 5927 5927 5927 5926 5926 5926 5925 5925 5925 5926 5926 5926 5926 5926 5925 5925 5924 5924 5923 5923 5923 5923 5923 5923 5923 5923 5923 5923 5923 5923 5923 5923 5923 5923 5923 5923 5923 5923 5923 5923 5923 5924 5924 5924 5924 5924 5925 5925
5911 5911 5911 5912 5912 5913 5913 5914 5915 5915 5916 5916 5917 5918 5919 5919 5920 5920 5921 5921 5922 5922 5923 5924 5924 5925 5925 5926 5926 5927 5927 5927 5927 5928 5929 5929 5929 5928 5928 5928 5928 5927 5927 5927 5927 5927 5927 5927 5927 5927 5927 5927 5927 5926 5926 5925 5925 5925 5924 5924 5924 5924 5924 5924 5923 5923 5923 5923 5923 5923 5923 5923 5923 5923 5923 5923 5923 5923 5923 5923 5923 5924 5924 5924 5924
5911 5912 5912 5912 5912 5913 5914 5915 5915 5916 5917 5917 5918 5919 5919 5920 5920 5921 5922 5922 5923 5923 5924 5925 5925 5926 5927 5927 5928 5928 5928 5928 5929 5929 5930 5930 5930 5930 5929 5929 5929 5928 5928 5928 5928 5928 5928 5928 5928 5928 5928 5928 5928 5927 5927 5927 5926 5926 5926 5926 5925 5925 5925 5924 5924 5924 5924 5924 5924 5924 5923 5923 5923 5924 5924 5924 5924 5924 5923 5923 5923 5923 5923 5924 5924
5911 5912 5912 5912 5913 5913 5914 5915 5916 5917 5917 5918 5919 5919 5920 5921 5921 5922 5922 5923 5924 5925 5925 5926 5926 5927 5928 5928 5929 5929 5929 5930 5930 5931 5931 5931 5931 5931 5931 5930 5930 5930 5930 5930 5929 5929 5929 5929 5929 5929 5929 5929 5928 5928 5928 5928 5927 5927 5927 5926 5926 5926 5925 5925 5925 5925 5925 5925 5925 5924 5924 5924 5924 5924 5924 5924 5924 5924 5924 5923 5923 5922 5923 5923 5923
5911 5911 5912 5913 5913 5914 5914 5915 5916 5917 5918 5919 5919 5920 5921 5921 5922 5923 5923 5924 5925 5926 5926 5927 5927 5928 5929 5929 5930 5930 5931 5931 5931 5932 5932 5932 5932 5932 5932 5932 5931 5931 5931 5931 5931 5930 5930 5930 5930 5930 5930 5930 5930 5929 5929 5928 5928 5928 5927 5927 5927 5927 5926 5926 5926 5926 5926 5925 5925 5925 5925 5925 5925 5925 5925 5925 5924 5923 5924 5923 5923 5923 5922 5923 5923
5911 5911 5912 5913 5914 5914 5915 5916 5917 5918 5918 5919 5920 5921 5921 5922 5923 5924 5925 5925 5926 5926 5927 5928 5928 5929 5930 5930 5931 5931 5932 5932 5932 5932 5933 5933 5933 5933 5933 5933 5932 5932 5932 5932 5932 5932 5931 5931 5931 5931 5931 5931 5931 5930 5930 5929 5929 5929 5928 5928 5928 5928 5927 5927 5927 5926 5926 5926 5926 5925 5925 5925 5925 5925 5925 5924 5924 5923 5923 5923 5923 5923 5923 5923 5923
5911 5911 5912 5913 5914 5914 5915 5916 5917 5918 5919 5920 5921 5921 5922 5923 5924 5925 5926 5927 5927 5928 5928 5929 5929 5930 5931 5931 5932 5932 5933 5933 5933 5934 5934 5934 5934 5934 5934 5934 5933 5933 5933 5933 5933 5933 5933 5933 5932 5932 5932 5932 5932 5931 5931 5931 5930 5930 5929 5929 5929 5928 5928 5928 5927 5927 5927 5926 5926 5926 5925 5925 5925 5925 5925 5924 5924 5924 5923 5923 5923 5923 5923 5923 5922
5911 5911 5912 5913 5914 5915 5915 5916 5917 5918 5919 5920 5921 5922 5923 5924 5925 5926 5927 5928 5928 5929 5929 5930 5930 5931 5932 5932 5933 5933 5933 5934 5934 5935 5935 5935 5935 5935 5935 5934 5934 5934 5934 5934 5934 5934 5934 5934 5933 5933 5932 5932 5933 5933 5932 5932 5931 5931 5930 5930 5930 5929 5929 5929 5928 5927 5927 5927 5926 5926 5926 5925 5925 5925 5925 5924 5924 5924 5923 5923 5923 5923 5923 5923 5923
5910 5911 5912 5913 5914 5915 5916 5917 5918 5919 5920 5921 5922 5923 5924 5925 5926 5927 5928 5928 5929 5930 5930 5931 5931 5932 5932 5933 5933 5934 5934 5935 5935 5936 5936 5936 5936 5936 5935 5935 5935 5934 5935 5935 5935 5935 5934 5934 5934 5933 5933 5933 5933 5933 5933 5933 5932 5932 5931 5931 5930 5930 5929 5929 5929 5928 5927 5927 5926 5926 5926 5926 5926 5925 5925 5924 5924 5923 5923 5923 5923 5923 5923 5923 5922
5910 5911 5912 5914 5914 5915 5916 5917 5918 5919 5920 5921 5922 5923 5924 5926 5927 5928 5929 5929 5930 5931 5931 5932 5932 5933 5933 5934 5934 5935 5935 5936 5936 5937 5937 5937 5937 5936 5936 5936 5935 5935 5935 5935 5935 5935 5935 5935 5934 5934 5934 5934 5934 5934 5933 5933 5933 5933 5932 5931 5931 5930 5930 5930 5929 5929 5928 5927 5927 5926 5926 5926 5926 5926 5925 5924 5923 5923 5923 5923 5923 5923 5923 5922 5922
5910 5911 5913 5914 5915 5916 5917 5918 5919 5920 5921 5922 5923 5924 5925 5926 5928 5929 5929 5930 5931 5931 5932 5933 5933 5934 5934 5934 5935 5935 5936 5937 5937 5937 5938 5938 5938 5937 5937 5937 5936 5936 5936 5936 5936 5936 5935 5935 5934 5934 5934 5934 5934 5934 5934 5934 5934 5933 5932 5932 5931 5931 5931 5930 5930 5929 5928 5928 5927 5927 5926 5926 5926 5926 5926 5925 5924 5924 5924 5924 5924 5923 5922 5922 5922
5909 5911 5913 5914 5915 5916 5917 5918 5919 5920 5921 5922 5923 5924 5926 5927 5928 5929 5930 5931 5931 5932 5933 5933 5934 5934 5935 5935 5935 5936 5937 5937 5938 5938 5938 5938 5938 5938 5938 5938 5937 5937 5937 5937 5937 5936 5936 5936 5935 5935 5935 5935 5935 5934 5934 5934 5934 5934 5933 5932 5932 5931 5931 5931 5930 5930 5929 5928 5928 5927 5927 5926 5926 5926 5925 5925 5924 5924 5924 5924 5924 5923 5923 5922 5922
5909 5911 5913 5915 5916 5916 5917 5918 5919 5921 5922 5922 5923 5925 5926 5927 5929 5930 5930 5931 5932 5933 5933 5934 5935 5935 5935 5936 5936 5937 5937 5938 5938 5939 5939 5939 5939 5938 5938 5938 5938 5937 5937 5937 5937 5937 5937 5937 5937 5936 5936 5936 5935 5934 5934 5934 5934 5934 5933 5933 5932 5932 5932 5931 5930 5930 5929 5928 5928 5927 5927 5926 5926 5926 5925 5925 5924 5924 5924 5924 5923 5923 5923 5923 5922
5910 5911 5913 5915 5916 5917 5918 5919 5920 5921 5922 5923 5924 5925 5926 5927 5929 5930 5931 5931 5932 5933 5934 5934 5935 5935 5936 5936 5937 5937 5938 5938 5939 5939 5939 5939 5939 5939 5939 5938 5938 5938 5938 5938 5938 5937 5937 5937 5937 5937 5936 5936 5935 5935 5934 5934 5934 5934 5933 5933 5933 5933 5932 5932 5931 5930 5929 5928 5927 5927 5927 5926 5926 5926 5925 5925 5924 5924 5923 5923 5923 5922 5923 5923 5922
5910 5911 5913 5914 5916 5917 5918 5919 5920 5921 5922 5923 5924 5925 5926 5928 5929 5930 5931 5932 5932 5933 5934 5935 5935 5936 5936 5936 5937 5937 5938 5938 5939 5939 5939 5939 5939 5939 5939 5938 5938 5938 5938 5938 5938 5937 5937 5936 5937 5937 5936 5936 5936 5935 5934 5934 5934 5933 5933 5933 5933 5933 5933 5932 5931 5931 5930 5928 5928 5927 5927 5926 5926 5926 5925 5925 5924 5924 5923 5923 5923 5923 5922 5922 5921
5909 5911 5913 5914 5916 5917 5918 5919 5920 5922 5923 5924 5925 5926 5927 5928 5929 5930 5931 5932 5933 5934 5934 5935 5936 5936 5936 5937 5937 5938 5938 5939 5939 5939 5939 5939 5939 5939 5939 5938 5938 5938 5938 5938 5937 5937 5936 5936 5936 5936 5936 5936 5935 5935 5934 5934 5933 5933 5932 5933 5933 5933 5933 5932 5931 5931 5930 5929 5928 5927 5927 5927 5926 5926 5925 5925 5924 5923 5923 5923 5922 5922 5922 5921 5921
5909 5911 5913 5914 5916 5917 5918 5919 5921 5922 5923 5924 5925 5926 5927 5928 5929 5930 5931 5932 5933 5934 5934 5935 5936 5936 5937 5937 5938 5938 5939 5939 5939 5939 5939 5939 5939 5939 5939 5938 5938 5938 5937 5937 5937 5936 5936 5935 5935 5935 5935 5935 5935 5935 5934 5934 5933 5933 5932 5932 5933 5933 5932 5932 5931 5931 5930 5930 5928 5927 5927 5927 5926 5926 5925 5925 5924 5923 5923 5922 5922 5922 5921 5921 5920
5909 5911 5912 5914 5916 5917 5918 5920 5921 5922 5923 5925 5926 5926 5927 5928 5929 5930 5931 5932 5933 5934 5935 5935 5936 5936 5937 5938 5938 5939 5939 5940 5940 5940 5939 5939 5939 5939 5938 5938 5937 5937 5937 5936 5936 5935 5935 5935 5935 5935 5935 5934 5934 5934 5934 5934 5933 5932 5932 5932 5932 5933 5932 5931 5931 5931 5930 5929 5928 5927 5927 5927 5926 5926 5925 5924 5924 5923 5922 5922 5921 5921 5921 5920 5920
5909 5911 5912 5914 5916 5917 5919 5920 5921 5922 5924 5925 5926 5927 5927 5928 5929 5930 5931 5932 5933 5933 5934 5935 5936 5937 5937 5938 5939 5939 5940 5940 5940 5940 5940 5940 5939 5939 5938 5938 5937 5937 5937 5936 5935 5935 5935 5935 5934 5934 5934 5934 5934 5934 5934 5933 5933 5932 5931 5931 5932 5932 5931 5931 5931 5930 5930 5929 5928 5927 5927 5926 5926 5925 5925 5924 5923 5923 5922 5921 5921 5920 5920 5920 5919
5909 5911 5912 5914 5916 5918 5919 5921 5922 5923 5924 5925 5926 5926 5927 5928 5929 5930 5931 5931 5932 5933 5934 5935 5936 5937 5937 5938 5939 5939 5940 5940 5940 5940 5940 5940 5939 5939 5938 5937 5937 5937 5936 5936 5935 5935 5935 5935 5934 5934 5934 5934 5934 5934 5934 5933 5932 5932 5931 5931 5931 5931 5930 5930 5930 5929 5929 5929 5928 5927 5926 5926 5925 5925 5924 5923 5923 5922 5921 5921 5920 5919 5919 5919 5919
5909 5911 5913 5914 5916 5917 5919 5920 5921 5923 5923 5924 5925 5926 5927 5928 5929 5929 5930 5931 5932 5933 5934 5935 5936 5936 5937 5938 5938 5939 5939 5940 5940 5940 5940 5940 5939 5939 5938 5937 5937 5937 5937 5936 5936 5935 5935 5935 5934 5934 5934 5934 5934 5934 5933 5933 5932 5932 5931 5931 5931 5930 5930 5929 5929 5929 5929 5928 5928 5927 5926 5926 5925 5924 5923 5923 5922 5921 5921 5920 5920 5919 5918 5918 5918
5909 5911 5912 5914 5915 5917 5918 5920 5921 5922 5923 5924 5925 5926 5926 5927 5928 5929 5930 5931 5932 5933 5933 5934 5935 5936 5937 5937 5938 5938 5939 5939 5939 5939 5939 5939 5939 5938 5938 5937 5937 5937 5937 5936 5936 5936 5936 5935 5935 5935 5934 5934 5934 5934 5934 5933 5932 5932 5931 5931 5930 5930 5929 5929 5929 5928 5928 5928 5927 5927 5926 5925 5924 5924 5923 5922 5922 5921 5920 5920 5919 5919 5918 5917 5917
5909 5910 5911 5913 5914 5916 5918 5919 5921 5922 5923 5924 5924 5925 5926 5927 5928 5929 5930 5931 5932 5932 5933 5934 5935 5935 5936 5937 5937 5938 5938 5938 5939 5939 5939 5939 5939 5938 5938 5937 5937 5937 5937 5937 5937 5937 5936 5936 5936 5936 5935 5935 5935 5934 5934 5933 5933 5932 5932 5931 5930 5930 5929 5928 5928 5927 5927 5927 5927 5926 5926 5925 5924 5923 5922 5922 5921 5921 5920 5919 5918 5918 5917 5917 5916
5908 5909 5911 5913 5914 5915 5917 5919 5920 5921 5922 5923 5924 5925 5926 5927 5928 5929 5930 5931 5931 5932 5933 5933 5934 5935 5935 5936 5936 5937 5937 5938 5938 5938 5939 5939 5938 5938 5937 5937 5937 5937 5937 5937 5937 5937 5937 5937 5937 5937 5936 5936 5935 5935 5934 5934 5933 5932 5931 5930 5930 5929 5929 5928 5927 5927 5926 5926 5926 5925 5925 5924 5924 5923 5922 5921 5920 5920 5919 5919 5918 5917 5916 5916 5916
5907 5909 5911 5912 5913 5915 5916 5917 5919 5920 5922 5923 5924 5925 5926 5927 5928 5929 5930 5930 5931 5931 5932 5933 5934 5934 5935 5936 5936 5936 5937 5937 5937 5938 5938 5938 5937 5937 5937 5937 5937 5937 5938 5938 5937 5938 5938 5938 5937 5937 5936 5936 5936 5935 5934 5933 5932 5931 5930 5930 5929 5928 5928 5927 5927 5926 5925 5925 5925 5924 5924 5923 5923 5922 5922 5921 5920 5919 5919 5918 5917 5916 5915 5915 5914
5907 5908 5909 5911 5912 5913 5915 5916 5918 5920 5921 5922 5924 5925 5926 5926 5927 5928 5929 5930 5930 5931 5932 5933 5933 5934 5935 5935 5935 5936 5936 5936 5937 5937 5937 5937 5937 5936 5936 5937 5937 5937 5938 5938 5938 5938 5938 5938 5937 5937 5936 5936 5935 5935 5934 5933 5932 5931 5930 5929 5928 5928 5927 5926 5926 5925 5924 5924 5924 5923 5923 5923 5922 5922 5921 5921 5920 5919 5918 5917 5916 5915 5915 5914 5914
5906 5907 5908 5909 5911 5913 5914 5916 5918 5919 5921 5922 5923 5924 5925 5926 5927 5927 5929 5930 5930 5931 5931 5932 5933 5934 5934 5934 5934 5935 5935 5935 5936 5936 5936 5936 5936 5936 5936 5936 5937 5937 5937 5937 5938 5938 5937 5937 5937 5937 5936 5935 5935 5934 5933 5933 5932 5930 5930 5929 5928 5927 5926 5926 5925 5924 5923 5923 5923 5922 5922 5922 5922 5921 5921 5920 5919 5918 5917 5916 5915 5915 5914 5914 5913
5904 5906 5907 5909 5910 5912 5914 5915 5916 5918 5919 5921 5922 5923 5924 5925 5926 5927 5928 5929 5930 5931 5931 5932 5932 5933 5933 5934 5934 5934 5934 5935 5935 5935 5935 5935 5935 5935 5935 5936 5936 5936 5937 5937 5937 5937 5937 5937 5936 5936 5935 5935 5934 5933 5933 5932 5931 5930 5929 5928 5927 5927 5926 5925 5925 5924 5923 5922 5922 5921 5921 5921 5921 5921 5920 5920 5919 5918 5917 5916 5915 5914 5913 5912 5912
5903 5905 5906 5907 5909 5910 5912 5913 5915 5916 5918 5919 5921 5922 5923 5924 5925 5926 5927 5928 5929 5930 5931 5931 5932 5932 5933 5933 5933 5933 5934 5934 5934 5934 5934 5934 5934 5934 5934 5935 5935 5936 5936 5936 5937 5937 5936 5936 5936 5935 5934 5934 5933 5933 5932 5931 5930 5929 5929 5928 5927 5926 5925 5925 5924 5924 5923 5922 5921 5921 5920 5920 5920 5919 5919 5919 5918 5918 5917 5916 5915 5914 5912 5911 5910
5901 5903 5904 5906 5908 5909 5910 5912 5913 5915 5916 5918 5919 5921 5922 5923 5924 5925 5926 5927 5928 5929 5930 5930 5931 5931 5932 5932 5932 5932 5933 5933 5934 5934 5934 5934 5933 5933 5934 5934 5935 5935 5935 5936 5936 5936 5936 5935 5935 5934 5934 5933 5933 5932 5931 5931 5930 5929 5928 5928 5927 5926 5925 5924 5923 5923 5922 5921 5921 5920 5919 5919 5918 5918 5918 5918 5917 5917 5916 5915 5914 5913 5912 5911 5910
5901 5902 5903 5905 5907 5908 5910 5911 5912 5913 5915 5917 5918 5919 5920 5922 5923 5924 5925 5926 5927 5928 5929 5929 5930 5930 5930 5931 5931 5931 5932 5932 5933 5933 5933 5933 5933 5933 5933 5933 5934 5934 5935 5935 5935 5935 5935 5934 5934 5933 5933 5933 5932 5932 5931 5930 5929 5929 5928 5927 5926 5925 5924 5923 5922 5921 5921 5920 5920 5919 5918 5918 5918 5917 5917 5917 5916 5916 5915 5914 5913 5912 5911 5911 5910